FENGYUN 1C DEB, 32192

Orbit data source: Space-Track

FENGYUN 1C DEB, 32192 is space debris in SSO originally from a launch on Mon, 10 May 1999 UTC launched from the Taiyaun Space Center, China (TSC). Fengyun 1C debris stems from the Chinese weather satellite Fengyun-1C, which was intentionally destroyed by a Chinese anti-satellite missile in 2007. This event dramatically increased the amount of space debris, with thousands of trackable fragments posing hazards to satellites and human spaceflight. The Fengyun 1C debris cloud has become a focal point in discussions about space sustainability and the need for international regulations to prevent the creation of new debris.

Loading next visibility...
Identifier
32192, 1999-025CUN
Orbit
SSO
Country
Flag of CNCN / PRC
Related business
Manufacturer
Unknown
Mission
Spacecraft
Bus & Motor
Unknown
Mass
Unknown
Launch date (UTC)
1999-05-10 (26 years ago)
Launch vehicle
Unknown
Launch site
Taiyaun Space Center, China (TSC)
Object type
Payload
Rocket body
Debris
Shape & HBR
Unknown shape, 0.1 m
Radar Cross Section
Small (<0.1 m²)

Expand to show TLE details & history
Last TLE update: 4 days ago

TLE from 4 days ago
0 FENGYUN 1C DEB
1 32192U 99025CUN 25299.38793296  .00000477  00000-0  42162-3 0  9992
2 32192  98.6557 174.0661 0181294 291.4156  66.7745 13.82461771920586
Epoch: 2025-10-26T09:18Z
TLE epoch observation values (Epoch: 2025-10-26T09:18:37.407Z)
Latitude
-0.00007°
Longitude
-0.5946°
Altitude
907.653 km
Speed
7.424 km/s
True Right ascension
11h 36m 15s
True Declination
0° 00' 00"
Sunlit
Object was in daylight at epoch
Visualization orbit readout
Latitude
Unknown
Longitude
Unknown
Altitude
Unknown
Speed
Unknown
Apparent Right ascension
Unknown
Apparent Declination
Unknown
Sunlit
N/A
Visualization observer readout
Local Sidereal Time
10:20:27
Azimuth
Unknown
Elevation
Unknown
Doppler factor
Unknown
Orbital elements
Apogee altitude
1,085.271 km
Perigee altitude
819.475 km
Semi-major axis
7,330.51 km
Eccentricity
0.01813
Inclination
98.6557°
RAAN
174.0661°
Arg. of periapsis
291.4156°
True anomaly
68.70046°
Mean anomaly
66.7745°
Eccentric anomaly
67.7358°
Mean motion
3.45813 °/min
Orbital period
104.1 mins
BSTAR
0.00042162
Loading maneuver chart data...
Computing Atmospheric mass density...

Documentation

Showing up to 5 results
|